Погода в Доссоре

Казахстан     47°31′49″N   52°58′28″E
темп.,
°C
ветер,
м/с
пор.,
м/с
влажн.,
%
обл.,
%
осадки,
мм/ч
давл.,
гПа
погр.,
м
8 марта, пн
пн823:00−2юз336928 0.0 1021110
02:00−3з367138 0.0 1021384
05:00−3зюз475729 0.0 1021661
08:00−3юз69520 0.0 1021463
11:00−1юз911450 0.0 1021771
14:00+2юз911400 0.0 10211192
17:00+2юз910450 0.0 10191082
20:00−2ююз611550 0.0 1019380
9 марта, вт
вт923:00−2ююз5105416 0.0 1019294
02:00−1ююз5862100 0.0 1018295
05:00−1ююз5777100 0.0 1017276
08:00−1ююз5880100 0.0 1016314
11:00+1ююз6754100 0.0 1016556
14:00+3ююз7850100 0.0 1015942
17:00+3юз7862100 0.0 10141094
20:000ююз61080100 0.0 1013339
10 марта, ср
ср1023:00−1юз7128795 0.0 1012358
02:000зюз9149284 0.1 1012570
05:00−2сз7117659 0.1 1013453
08:00−3зсз58730 0.0 1015484
11:000зюз57530 0.0 1016816
14:00+1зюз10128367 0.6 1017985
17:00−1сз10115680 1.1 10171655
20:00−4сз7105799 0.0 10201435
11 марта, чт
чт1123:00−6сз795389 0.0 10221306
02:00−7сз685594 0.0 10221200
05:00−8сз565597 0.0 10231031
08:00−9ссз555775 0.0 1024858
11:00−9ссз445275 0.0 1025921
14:00−7с444373 0.0 10251057
17:00−7с544336 0.0 10251105
20:00−9ссв665362 0.0 1026834
12 марта, пт
пт1223:00−11ссв676580 0.0 1028722
02:00−14ссв7865100 0.0 1028490
05:00−16ссв896195 0.0 1029384
08:00−17св795873 0.0 1030403
11:00−15св794483 0.0 1031433
14:00−12ссв81041100 0.0 1031583
17:00−10ссв81046100 0.0 1030681
20:00−12ссв81056100 0.0 1031529